contact:dominique.lefevre@mio.osupytheas.fr, maurice.libes@osupytheas.fr, didier.mallarino@osupytheas.fr
Project:EMSO http://www.emso-fr.org/EMSO-France
Depth: 2436.0 m
Title:EMSO Ligure Ouest : Data MII capteur MICROCAT
DateTime_Computer,Latitude,Longitude,Temperature,Conductivity,Pressure,DateTime_Instrument
DateTime_Computer,Latitude,Longitude,degC,S m-1,dbar,DateTime_Instrument
2023-09-03T00:00:54Z,42.805,6.029,13.3093,4.60150,2470.81,2023-9-03T02:03:15Z
2023-09-03T00:03:57Z,42.805,6.029,13.3066,4.60157,2470.763,2023-9-03T02:06:18Z
2023-09-03T00:07:00Z,42.805,6.029,13.3089,4.60165,2470.787,2023-9-03T02:09:21Z
2023-09-03T00:10:04Z,42.805,6.029,13.3084,4.60135,2470.8,2023-9-03T02:12:24Z
2023-09-03T00:13:07Z,42.805,6.029,13.3061,4.60159,2470.763,2023-9-03T02:15:28Z
2023-09-03T00:16:10Z,42.805,6.029,13.3078,4.60160,2470.763,2023-9-03T02:18:31Z
2023-09-03T00:19:13Z,42.805,6.029,13.3077,4.60165,2470.8,2023-9-03T02:21:34Z
2023-09-03T00:22:16Z,42.805,6.029,13.3059,4.60155,2470.8,2023-9-03T02:24:37Z
2023-09-03T00:25:19Z,42.805,6.029,13.3076,4.60127,2470.763,2023-9-03T02:27:40Z
2023-09-03T00:28:22Z,42.805,6.029,13.3062,4.60127,2470.777,2023-9-03T02:30:43Z
2023-09-03T00:31:25Z,42.805,6.029,13.3077,4.60130,2470.763,2023-9-03T02:33:46Z
2023-09-03T00:34:28Z,42.805,6.029,13.3067,4.60143,2470.763,2023-9-03T02:36:49Z
2023-09-03T00:37:31Z,42.805,6.029,13.3061,4.60144,2470.8,2023-9-03T02:39:52Z
2023-09-03T00:40:34Z,42.805,6.029,13.3067,4.60113,2470.74,2023-9-03T02:42:55Z
2023-09-03T00:43:37Z,42.805,6.029,13.3072,4.60121,2470.74,2023-9-03T02:45:58Z
2023-09-03T00:46:40Z,42.805,6.029,13.3075,4.60122,2470.777,2023-9-03T02:49:01Z
2023-09-03T00:49:44Z,42.805,6.029,13.3083,4.60140,2470.74,2023-9-03T02:52:04Z
2023-09-03T00:52:47Z,42.805,6.029,13.3088,4.60150,2470.777,2023-9-03T02:55:08Z
2023-09-03T00:55:50Z,42.805,6.029,13.3069,4.60172,2470.754,2023-9-03T02:58:11Z
2023-09-03T00:58:53Z,42.805,6.029,13.3084,4.60137,2470.773,2023-9-03T03:01:14Z
2023-09-03T01:01:56Z,42.805,6.029,13.3082,4.60133,2470.717,2023-9-03T03:04:17Z
2023-09-03T01:04:59Z,42.805,6.029,13.3078,4.60132,2470.717,2023-9-03T03:07:20Z
2023-09-03T01:08:02Z,42.805,6.029,13.3069,4.60123,2470.74,2023-9-03T03:10:23Z
2023-09-03T01:11:05Z,42.805,6.029,13.3078,4.60132,2470.73,2023-9-03T03:13:26Z
2023-09-03T01:14:08Z,42.805,6.029,13.3067,4.60126,2470.74,2023-9-03T03:16:29Z
2023-09-03T01:17:11Z,42.805,6.029,13.3083,4.60128,2470.74,2023-9-03T03:19:32Z
2023-09-03T01:20:14Z,42.805,6.029,13.3087,4.60127,2470.717,2023-9-03T03:22:35Z
2023-09-03T01:23:17Z,42.805,6.029,13.3087,4.60146,2470.74,2023-9-03T03:25:38Z
2023-09-03T01:26:21Z,42.805,6.029,13.3066,4.60146,2470.717,2023-9-03T03:28:41Z
2023-09-03T01:29:24Z,42.805,6.029,13.3082,4.60144,2470.693,2023-9-03T03:31:44Z
2023-09-03T01:32:27Z,42.805,6.029,13.3111,4.60131,2470.754,2023-9-03T03:34:48Z
2023-09-03T01:35:30Z,42.805,6.029,13.3085,4.60129,2470.717,2023-9-03T03:37:51Z
2023-09-03T01:38:33Z,42.805,6.029,13.3093,4.60135,2470.73,2023-9-03T03:40:54Z
2023-09-03T01:41:36Z,42.805,6.029,13.3082,4.60136,2470.717,2023-9-03T03:43:57Z
2023-09-03T01:44:39Z,42.805,6.029,13.3090,4.60137,2470.67,2023-9-03T03:47:00Z
2023-09-03T01:47:42Z,42.805,6.029,13.3089,4.60140,2470.707,2023-9-03T03:50:03Z
2023-09-03T01:50:45Z,42.805,6.029,13.3078,4.60137,2470.717,2023-9-03T03:53:06Z
2023-09-03T01:53:48Z,42.805,6.029,13.3064,4.60133,2470.73,2023-9-03T03:56:09Z
2023-09-03T01:56:51Z,42.805,6.029,13.3070,4.60129,2470.693,2023-9-03T03:59:12Z
2023-09-03T01:59:54Z,42.805,6.029,13.3065,4.60141,2470.707,2023-9-03T04:02:15Z
2023-09-03T02:02:57Z,42.805,6.029,13.3088,4.60158,2470.684,2023-9-03T04:05:18Z
2023-09-03T02:06:01Z,42.805,6.029,13.3057,4.60139,2470.684,2023-9-03T04:08:21Z
2023-09-03T02:09:04Z,42.805,6.029,13.3084,4.60130,2470.707,2023-9-03T04:11:25Z
2023-09-03T02:12:07Z,42.805,6.029,13.3064,4.60133,2470.684,2023-9-03T04:14:28Z
2023-09-03T02:15:10Z,42.805,6.029,13.3063,4.60150,2470.67,2023-9-03T04:17:31Z
2023-09-03T02:18:13Z,42.805,6.029,13.3063,4.60146,2470.646,2023-9-03T04:20:34Z
2023-09-03T02:21:16Z,42.805,6.029,13.3069,4.60142,2470.646,2023-9-03T04:23:37Z
2023-09-03T02:24:19Z,42.805,6.029,13.3087,4.60147,2470.67,2023-9-03T04:26:40Z
2023-09-03T02:27:22Z,42.805,6.029,13.3067,4.60122,2470.707,2023-9-03T04:29:43Z
2023-09-03T02:30:25Z,42.805,6.029,13.3076,4.60125,2470.67,2023-9-03T04:32:46Z
2023-09-03T02:33:28Z,42.805,6.029,13.3079,4.60125,2470.661,2023-9-03T04:35:49Z
2023-09-03T02:36:31Z,42.805,6.029,13.3083,4.60144,2470.624,2023-9-03T04:38:52Z
2023-09-03T02:39:34Z,42.805,6.029,13.3096,4.60153,2470.637,2023-9-03T04:41:55Z
2023-09-03T02:42:37Z,42.805,6.029,13.3075,4.60126,2470.67,2023-9-03T04:44:58Z
2023-09-03T02:45:41Z,42.805,6.029,13.3071,4.60138,2470.624,2023-9-03T04:48:01Z
2023-09-03T02:48:44Z,42.805,6.029,13.3088,4.60150,2470.646,2023-9-03T04:51:05Z
2023-09-03T02:51:47Z,42.805,6.029,13.3093,4.60124,2470.646,2023-9-03T04:54:08Z
2023-09-03T02:54:50Z,42.805,6.029,13.3091,4.60122,2470.661,2023-9-03T04:57:11Z
2023-09-03T02:57:53Z,42.805,6.029,13.3065,4.60121,2470.646,2023-9-03T05:00:14Z
2023-09-03T03:00:56Z,42.805,6.029,13.3074,4.60137,2470.67,2023-9-03T05:03:17Z
2023-09-03T03:03:59Z,42.805,6.029,13.3077,4.60126,2470.684,2023-9-03T05:06:20Z
2023-09-03T03:07:02Z,42.805,6.029,13.3096,4.60135,2470.684,2023-9-03T05:09:23Z
2023-09-03T03:10:05Z,42.805,6.029,13.3113,4.60132,2470.624,2023-9-03T05:12:26Z
2023-09-03T03:13:08Z,42.805,6.029,13.3081,4.60144,2470.684,2023-9-03T05:15:29Z
2023-09-03T03:16:11Z,42.805,6.029,13.3084,4.60156,2470.661,2023-9-03T05:18:32Z
2023-09-03T03:19:14Z,42.805,6.029,13.3091,4.60124,2470.661,2023-9-03T05:21:35Z
2023-09-03T03:22:17Z,42.805,6.029,13.3085,4.60152,2470.67,2023-9-03T05:24:38Z
2023-09-03T03:25:21Z,42.805,6.029,13.3084,4.60131,2470.661,2023-9-03T05:27:41Z
2023-09-03T03:28:24Z,42.805,6.029,13.3098,4.60151,2470.661,2023-9-03T05:30:45Z
2023-09-03T03:31:27Z,42.805,6.029,13.3064,4.60136,2470.661,2023-9-03T05:33:48Z
2023-09-03T03:34:30Z,42.805,6.029,13.3091,4.60125,2470.661,2023-9-03T05:36:51Z
2023-09-03T03:37:33Z,42.805,6.029,13.3085,4.60146,2470.661,2023-9-03T05:39:54Z
2023-09-03T03:40:36Z,42.805,6.029,13.3096,4.60131,2470.661,2023-9-03T05:42:57Z
2023-09-03T03:43:39Z,42.805,6.029,13.3082,4.60128,2470.646,2023-9-03T05:46:00Z
2023-09-03T03:46:42Z,42.805,6.029,13.3078,4.60135,2470.646,2023-9-03T05:49:03Z
2023-09-03T03:49:45Z,42.805,6.029,13.3086,4.60140,2470.646,2023-9-03T05:52:06Z
2023-09-03T03:52:48Z,42.805,6.029,13.3091,4.60141,2470.67,2023-9-03T05:55:09Z
2023-09-03T03:55:51Z,42.805,6.029,13.3089,4.60162,2470.614,2023-9-03T05:58:12Z
2023-09-03T03:58:54Z,42.805,6.029,13.3096,4.60137,2470.661,2023-9-03T06:01:15Z
2023-09-03T04:01:58Z,42.805,6.029,13.3090,4.60137,2470.646,2023-9-03T06:04:18Z
2023-09-03T04:05:01Z,42.805,6.029,13.3085,4.60143,2470.661,2023-9-03T06:07:21Z
2023-09-03T04:08:04Z,42.805,6.029,13.3079,4.60133,2470.684,2023-9-03T06:10:25Z
2023-09-03T04:11:07Z,42.805,6.029,13.3099,4.60127,2470.661,2023-9-03T06:13:28Z
2023-09-03T04:14:10Z,42.805,6.029,13.3069,4.60125,2470.661,2023-9-03T06:16:31Z
2023-09-03T04:17:13Z,42.805,6.029,13.3083,4.60140,2470.661,2023-9-03T06:19:34Z
2023-09-03T04:20:16Z,42.805,6.029,13.3073,4.60131,2470.637,2023-9-03T06:22:37Z
2023-09-03T04:23:19Z,42.805,6.029,13.3080,4.60141,2470.624,2023-9-03T06:25:40Z
2023-09-03T04:26:22Z,42.805,6.029,13.3098,4.60140,2470.637,2023-9-03T06:28:43Z
2023-09-03T04:29:25Z,42.805,6.029,13.3097,4.60133,2470.646,2023-9-03T06:31:46Z
2023-09-03T04:32:28Z,42.805,6.029,13.3095,4.60138,2470.684,2023-9-03T06:34:49Z
2023-09-03T04:35:31Z,42.805,6.029,13.3095,4.60145,2470.684,2023-9-03T06:37:52Z
2023-09-03T04:38:35Z,42.805,6.029,13.3106,4.60134,2470.684,2023-9-03T06:40:55Z
2023-09-03T04:41:38Z,42.805,6.029,13.3114,4.60167,2470.661,2023-9-03T06:43:59Z
2023-09-03T04:44:41Z,42.805,6.029,13.3097,4.60137,2470.684,2023-9-03T06:47:02Z
2023-09-03T04:47:44Z,42.805,6.029,13.3113,4.60159,2470.661,2023-9-03T06:50:05Z
2023-09-03T04:50:47Z,42.805,6.029,13.3080,4.60154,2470.646,2023-9-03T06:53:08Z
2023-09-03T04:53:50Z,42.805,6.029,13.3078,4.60130,2470.67,2023-9-03T06:56:11Z
2023-09-03T04:56:53Z,42.805,6.029,13.3096,4.60122,2470.684,2023-9-03T06:59:14Z
2023-09-03T04:59:56Z,42.805,6.029,13.3109,4.60119,2470.684,2023-9-03T07:02:17Z
2023-09-03T05:02:59Z,42.805,6.029,13.3106,4.60130,2470.646,2023-9-03T07:05:20Z
2023-09-03T05:06:02Z,42.805,6.029,13.3103,4.60132,2470.661,2023-9-03T07:08:23Z
2023-09-03T05:09:05Z,42.805,6.029,13.3094,4.60135,2470.67,2023-9-03T07:11:26Z
2023-09-03T05:12:08Z,42.805,6.029,13.3090,4.60125,2470.67,2023-9-03T07:14:29Z
2023-09-03T05:15:11Z,42.805,6.029,13.3076,4.60154,2470.684,2023-9-03T07:17:32Z
2023-09-03T05:18:15Z,42.805,6.029,13.3106,4.60130,2470.67,2023-9-03T07:20:35Z
2023-09-03T05:21:18Z,42.805,6.029,13.3078,4.60114,2470.684,2023-9-03T07:23:39Z
2023-09-03T05:24:21Z,42.805,6.029,13.3085,4.60131,2470.684,2023-9-03T07:26:42Z
2023-09-03T05:27:24Z,42.805,6.029,13.3109,4.60122,2470.646,2023-9-03T07:29:45Z
2023-09-03T05:30:27Z,42.805,6.029,13.3096,4.60135,2470.646,2023-9-03T07:32:48Z
2023-09-03T05:33:30Z,42.805,6.029,13.3096,4.60131,2470.684,2023-9-03T07:35:51Z
2023-09-03T05:36:33Z,42.805,6.029,13.3084,4.60163,2470.693,2023-9-03T07:38:54Z
2023-09-03T05:39:36Z,42.805,6.029,13.3076,4.60145,2470.684,2023-9-03T07:41:57Z
2023-09-03T05:42:39Z,42.805,6.029,13.3104,4.60134,2470.67,2023-9-03T07:45:00Z
2023-09-03T05:45:42Z,42.805,6.029,13.3110,4.60132,2470.684,2023-9-03T07:48:03Z
2023-09-03T05:48:45Z,42.805,6.029,13.3104,4.60169,2470.707,2023-9-03T07:51:06Z
2023-09-03T05:51:48Z,42.805,6.029,13.3109,4.60162,2470.661,2023-9-03T07:54:09Z
2023-09-03T05:54:52Z,42.805,6.029,13.3093,4.60135,2470.717,2023-9-03T07:57:12Z
2023-09-03T05:57:55Z,42.805,6.029,13.3101,4.60150,2470.73,2023-9-03T08:00:16Z
2023-09-03T06:00:58Z,42.805,6.029,13.3107,4.60169,2470.707,2023-9-03T08:03:19Z
2023-09-03T06:04:01Z,42.805,6.029,13.3070,4.60150,2470.693,2023-9-03T08:06:22Z
2023-09-03T06:07:04Z,42.805,6.029,13.3084,4.60170,2470.707,2023-9-03T08:09:25Z
2023-09-03T06:10:07Z,42.805,6.029,13.3093,4.60218,2470.707,2023-9-03T08:12:28Z
2023-09-03T06:13:10Z,42.805,6.029,13.3094,4.60175,2470.707,2023-9-03T08:15:31Z
2023-09-03T06:16:13Z,42.805,6.029,13.3089,4.60157,2470.73,2023-9-03T08:18:34Z
2023-09-03T06:19:16Z,42.805,6.029,13.3085,4.60144,2470.693,2023-9-03T08:21:37Z
2023-09-03T06:22:19Z,42.805,6.029,13.3095,4.60175,2470.717,2023-9-03T08:24:40Z
2023-09-03T06:25:22Z,42.805,6.029,13.3116,4.60154,2470.707,2023-9-03T08:27:43Z
2023-09-03T06:28:25Z,42.805,6.029,13.3116,4.60130,2470.693,2023-9-03T08:30:46Z
2023-09-03T06:31:28Z,42.805,6.029,13.3102,4.60144,2470.754,2023-9-03T08:33:49Z
2023-09-03T06:34:32Z,42.805,6.029,13.3111,4.60160,2470.754,2023-9-03T08:36:52Z
2023-09-03T06:37:35Z,42.805,6.029,13.3120,4.60145,2470.754,2023-9-03T08:39:56Z
2023-09-03T06:40:38Z,42.805,6.029,13.3112,4.60140,2470.754,2023-9-03T08:42:59Z
2023-09-03T06:43:41Z,42.805,6.029,13.3119,4.60182,2470.74,2023-9-03T08:46:02Z
2023-09-03T06:46:44Z,42.805,6.029,13.3115,4.60164,2470.754,2023-9-03T08:49:05Z
2023-09-03T06:49:47Z,42.805,6.029,13.3104,4.60135,2470.74,2023-9-03T08:52:08Z
2023-09-03T06:52:50Z,42.805,6.029,13.3112,4.60140,2470.73,2023-9-03T08:55:11Z
2023-09-03T06:55:53Z,42.805,6.029,13.3104,4.60133,2470.777,2023-9-03T08:58:14Z
2023-09-03T06:58:56Z,42.805,6.029,13.3107,4.60138,2470.717,2023-9-03T09:01:17Z
2023-09-03T07:01:59Z,42.805,6.029,13.3109,4.60157,2470.763,2023-9-03T09:04:20Z
2023-09-03T07:05:02Z,42.805,6.029,13.3112,4.60132,2470.74,2023-9-03T09:07:23Z
2023-09-03T07:08:05Z,42.805,6.029,13.3108,4.60146,2470.763,2023-9-03T09:10:26Z
2023-09-03T07:11:08Z,42.805,6.029,13.3106,4.60156,2470.74,2023-9-03T09:13:29Z
2023-09-03T07:14:12Z,42.805,6.029,13.3101,4.60176,2470.74,2023-9-03T09:16:32Z
2023-09-03T07:17:15Z,42.805,6.029,13.3104,4.60169,2470.8,2023-9-03T09:19:36Z
2023-09-03T07:20:18Z,42.805,6.029,13.3106,4.60160,2470.777,2023-9-03T09:22:39Z
2023-09-03T07:23:21Z,42.805,6.029,13.3113,4.60183,2470.787,2023-9-03T09:25:42Z
2023-09-03T07:26:24Z,42.805,6.029,13.3122,4.60150,2470.8,2023-9-03T09:28:45Z
2023-09-03T07:29:27Z,42.805,6.029,13.3118,4.60134,2470.777,2023-9-03T09:31:48Z
2023-09-03T07:32:30Z,42.805,6.029,13.3120,4.60137,2470.791,2023-9-03T09:34:51Z
2023-09-03T07:35:33Z,42.805,6.029,13.3116,4.60124,2470.777,2023-9-03T09:37:54Z
2023-09-03T07:38:36Z,42.805,6.029,13.3123,4.60128,2470.8,2023-9-03T09:40:57Z
2023-09-03T07:41:39Z,42.805,6.029,13.3109,4.60129,2470.777,2023-9-03T09:44:00Z
2023-09-03T07:44:42Z,42.805,6.029,13.3098,4.60116,2470.777,2023-9-03T09:47:03Z
2023-09-03T07:47:45Z,42.805,6.029,13.3087,4.60127,2470.8,2023-9-03T09:50:06Z
2023-09-03T07:50:49Z,42.805,6.029,13.3081,4.60129,2470.8,2023-9-03T09:53:09Z
2023-09-03T07:53:52Z,42.805,6.029,13.3073,4.60129,2470.81,2023-9-03T09:56:13Z
2023-09-03T07:56:55Z,42.805,6.029,13.3078,4.60129,2470.824,2023-9-03T09:59:16Z
2023-09-03T07:59:58Z,42.805,6.029,13.3081,4.60122,2470.787,2023-9-03T10:02:19Z
2023-09-03T08:03:01Z,42.805,6.029,13.3076,4.60139,2470.787,2023-9-03T10:05:22Z
2023-09-03T08:06:04Z,42.805,6.029,13.3082,4.60133,2470.833,2023-9-03T10:08:25Z
2023-09-03T08:09:07Z,42.805,6.029,13.3089,4.60132,2470.8,2023-9-03T10:11:28Z
2023-09-03T08:12:10Z,42.805,6.029,13.3091,4.60147,2470.81,2023-9-03T10:14:31Z
2023-09-03T08:15:13Z,42.805,6.029,13.3104,4.60160,2470.824,2023-9-03T10:17:34Z
2023-09-03T08:18:16Z,42.805,6.029,13.3112,4.60140,2470.81,2023-9-03T10:20:37Z
2023-09-03T08:21:19Z,42.805,6.029,13.3114,4.60145,2470.81,2023-9-03T10:23:40Z
2023-09-03T08:24:22Z,42.805,6.029,13.3105,4.60148,2470.8,2023-9-03T10:26:43Z
2023-09-03T08:27:26Z,42.805,6.029,13.3097,4.60122,2470.847,2023-9-03T10:29:46Z
2023-09-03T08:30:27Z,42.805,6.029,13.3104,4.60130,2470.824,2023-9-03T10:32:48Z
2023-09-03T08:33:30Z,42.805,6.029,13.3104,4.60149,2470.81,2023-9-03T10:35:51Z
2023-09-03T08:36:33Z,42.805,6.029,13.3104,4.60142,2470.833,2023-9-03T10:38:54Z
2023-09-03T08:39:36Z,42.805,6.029,13.3098,4.60151,2470.787,2023-9-03T10:41:57Z
2023-09-03T08:42:39Z,42.805,6.029,13.3099,4.60139,2470.81,2023-9-03T10:45:00Z
2023-09-03T08:45:42Z,42.805,6.029,13.3104,4.60144,2470.824,2023-9-03T10:48:03Z
2023-09-03T08:48:45Z,42.805,6.029,13.3073,4.60146,2470.824,2023-9-03T10:51:06Z
2023-09-03T08:51:48Z,42.805,6.029,13.3070,4.60142,2470.847,2023-9-03T10:54:09Z
2023-09-03T08:54:51Z,42.805,6.029,13.3093,4.60194,2470.787,2023-9-03T10:57:12Z
2023-09-03T08:57:54Z,42.805,6.029,13.3106,4.60229,2470.833,2023-9-03T11:00:15Z
2023-09-03T09:00:58Z,42.805,6.029,13.3116,4.60139,2470.847,2023-9-03T11:03:19Z
2023-09-03T09:04:01Z,42.805,6.029,13.3112,4.60148,2470.777,2023-9-03T11:06:22Z
2023-09-03T09:07:04Z,42.805,6.029,13.3082,4.60137,2470.81,2023-9-03T11:09:25Z
2023-09-03T09:10:07Z,42.805,6.029,13.3125,4.60170,2470.833,2023-9-03T11:12:28Z
2023-09-03T09:13:10Z,42.805,6.029,13.3064,4.60171,2470.787,2023-9-03T11:15:31Z
2023-09-03T09:16:13Z,42.805,6.029,13.3070,4.60128,2470.787,2023-9-03T11:18:34Z
2023-09-03T09:19:16Z,42.805,6.029,13.3085,4.60142,2470.824,2023-9-03T11:21:37Z
2023-09-03T09:22:19Z,42.805,6.029,13.3068,4.60185,2470.8,2023-9-03T11:24:40Z
2023-09-03T09:25:22Z,42.805,6.029,13.3067,4.60177,2470.81,2023-9-03T11:27:43Z
2023-09-03T09:28:25Z,42.805,6.029,13.3082,4.60189,2470.871,2023-9-03T11:30:46Z
2023-09-03T09:31:28Z,42.805,6.029,13.3060,4.60167,2470.8,2023-9-03T11:33:49Z
2023-09-03T09:34:32Z,42.805,6.029,13.3063,4.60210,2470.81,2023-9-03T11:36:52Z
2023-09-03T09:37:35Z,42.805,6.029,13.3061,4.60170,2470.824,2023-9-03T11:39:56Z
2023-09-03T09:40:38Z,42.805,6.029,13.3069,4.60173,2470.787,2023-9-03T11:42:59Z
2023-09-03T09:43:41Z,42.805,6.029,13.3080,4.60188,2470.8,2023-9-03T11:46:02Z
2023-09-03T09:46:44Z,42.805,6.029,13.3064,4.60154,2470.787,2023-9-03T11:49:05Z
2023-09-03T09:49:47Z,42.805,6.029,13.3072,4.60160,2470.787,2023-9-03T11:52:08Z
2023-09-03T09:52:50Z,42.805,6.029,13.3054,4.60150,2470.81,2023-9-03T11:55:11Z
2023-09-03T09:55:53Z,42.805,6.029,13.3062,4.60170,2470.833,2023-9-03T11:58:14Z
2023-09-03T09:58:56Z,42.805,6.029,13.3051,4.60195,2470.787,2023-9-03T12:01:17Z
2023-09-03T10:01:59Z,42.805,6.029,13.3062,4.60198,2470.81,2023-9-03T12:04:20Z
2023-09-03T10:05:02Z,42.805,6.029,13.3072,4.60208,2470.81,2023-9-03T12:07:23Z
2023-09-03T10:08:05Z,42.805,6.029,13.3075,4.60188,2470.787,2023-9-03T12:10:26Z
2023-09-03T10:11:08Z,42.805,6.029,13.3063,4.60198,2470.8,2023-9-03T12:13:29Z
2023-09-03T10:14:12Z,42.805,6.029,13.3070,4.60208,2470.787,2023-9-03T12:16:33Z
2023-09-03T10:17:15Z,42.805,6.029,13.3073,4.60193,2470.824,2023-9-03T12:19:36Z
2023-09-03T10:20:18Z,42.805,6.029,13.3070,4.60209,2470.787,2023-9-03T12:22:39Z
2023-09-03T10:23:21Z,42.805,6.029,13.3069,4.60218,2470.8,2023-9-03T12:25:42Z
2023-09-03T10:26:24Z,42.805,6.029,13.3076,4.60214,2470.81,2023-9-03T12:28:45Z
2023-09-03T10:29:27Z,42.805,6.029,13.3052,4.60191,2470.81,2023-9-03T12:31:48Z
2023-09-03T10:32:30Z,42.805,6.029,13.3062,4.60176,2470.787,2023-9-03T12:34:51Z
2023-09-03T10:35:33Z,42.805,6.029,13.3057,4.60185,2470.787,2023-9-03T12:37:54Z
2023-09-03T10:38:36Z,42.805,6.029,13.3058,4.60173,2470.777,2023-9-03T12:40:57Z
2023-09-03T10:41:39Z,42.805,6.029,13.3060,4.60167,2470.763,2023-9-03T12:44:00Z
2023-09-03T10:44:42Z,42.805,6.029,13.3076,4.60200,2470.787,2023-9-03T12:47:03Z
2023-09-03T10:47:45Z,42.805,6.029,13.3056,4.60183,2470.763,2023-9-03T12:50:06Z
2023-09-03T10:50:49Z,42.805,6.029,13.3050,4.60176,2470.777,2023-9-03T12:53:10Z
2023-09-03T10:53:52Z,42.805,6.029,13.3058,4.60173,2470.763,2023-9-03T12:56:13Z
2023-09-03T10:56:55Z,42.805,6.029,13.3058,4.60185,2470.777,2023-9-03T12:59:16Z
2023-09-03T10:59:58Z,42.805,6.029,13.3054,4.60184,2470.8,2023-9-03T13:02:19Z
2023-09-03T11:03:01Z,42.805,6.029,13.3063,4.60195,2470.777,2023-9-03T13:05:22Z
2023-09-03T11:06:04Z,42.805,6.029,13.3052,4.60180,2470.763,2023-9-03T13:08:25Z
2023-09-03T11:09:07Z,42.805,6.029,13.3054,4.60188,2470.763,2023-9-03T13:11:28Z
2023-09-03T11:12:10Z,42.805,6.029,13.3066,4.60190,2470.777,2023-9-03T13:14:31Z
2023-09-03T11:15:13Z,42.805,6.029,13.3062,4.60213,2470.787,2023-9-03T13:17:34Z
2023-09-03T11:18:16Z,42.805,6.029,13.3066,4.60186,2470.777,2023-9-03T13:20:37Z
2023-09-03T11:21:19Z,42.805,6.029,13.3061,4.60178,2470.754,2023-9-03T13:23:40Z
2023-09-03T11:24:22Z,42.805,6.029,13.3061,4.60170,2470.754,2023-9-03T13:26:43Z
2023-09-03T11:27:26Z,42.805,6.029,13.3057,4.60149,2470.777,2023-9-03T13:29:47Z
2023-09-03T11:30:29Z,42.805,6.029,13.3056,4.60167,2470.777,2023-9-03T13:32:50Z
2023-09-03T11:33:32Z,42.805,6.029,13.3048,4.60190,2470.787,2023-9-03T13:35:53Z
2023-09-03T11:36:35Z,42.805,6.029,13.3044,4.60162,2470.754,2023-9-03T13:38:56Z
2023-09-03T11:39:38Z,42.805,6.029,13.3048,4.60157,2470.777,2023-9-03T13:41:59Z
2023-09-03T11:42:41Z,42.805,6.029,13.3049,4.60139,2470.74,2023-9-03T13:45:02Z
2023-09-03T11:45:44Z,42.805,6.029,13.3040,4.60135,2470.763,2023-9-03T13:48:05Z
2023-09-03T11:48:47Z,42.805,6.029,13.3047,4.60141,2470.754,2023-9-03T13:51:08Z
2023-09-03T11:51:50Z,42.805,6.029,13.3048,4.60136,2470.787,2023-9-03T13:54:11Z
2023-09-03T11:54:53Z,42.805,6.029,13.3051,4.60154,2470.763,2023-9-03T13:57:14Z
2023-09-03T11:57:56Z,42.805,6.029,13.3048,4.60135,2470.74,2023-9-03T14:00:17Z
2023-09-03T12:00:59Z,42.805,6.029,13.3051,4.60143,2470.717,2023-9-03T14:03:20Z
2023-09-03T12:04:03Z,42.805,6.029,13.3054,4.60148,2470.74,2023-9-03T14:06:24Z
2023-09-03T12:07:06Z,42.805,6.029,13.3043,4.60161,2470.754,2023-9-03T14:09:27Z
2023-09-03T12:10:09Z,42.805,6.029,13.3047,4.60138,2470.73,2023-9-03T14:12:30Z
2023-09-03T12:13:12Z,42.805,6.029,13.3053,4.60135,2470.717,2023-9-03T14:15:33Z
2023-09-03T12:16:15Z,42.805,6.029,13.3043,4.60128,2470.717,2023-9-03T14:18:36Z
2023-09-03T12:19:18Z,42.805,6.029,13.3056,4.60175,2470.73,2023-9-03T14:21:39Z
2023-09-03T12:22:21Z,42.805,6.029,13.3051,4.60132,2470.754,2023-9-03T14:24:42Z
2023-09-03T12:25:24Z,42.805,6.029,13.3061,4.60140,2470.74,2023-9-03T14:27:45Z
2023-09-03T12:28:27Z,42.805,6.029,13.3046,4.60131,2470.754,2023-9-03T14:30:48Z
2023-09-03T12:31:30Z,42.805,6.029,13.3044,4.60134,2470.717,2023-9-03T14:33:51Z
2023-09-03T12:34:33Z,42.805,6.029,13.3056,4.60126,2470.693,2023-9-03T14:36:54Z
2023-09-03T12:37:36Z,42.805,6.029,13.3043,4.60127,2470.73,2023-9-03T14:39:57Z
2023-09-03T12:40:40Z,42.805,6.029,13.3042,4.60122,2470.707,2023-9-03T14:43:00Z
2023-09-03T12:43:43Z,42.805,6.029,13.3049,4.60134,2470.693,2023-9-03T14:46:04Z
2023-09-03T12:46:46Z,42.805,6.029,13.3042,4.60140,2470.717,2023-9-03T14:49:07Z
2023-09-03T12:49:49Z,42.805,6.029,13.3046,4.60157,2470.717,2023-9-03T14:52:10Z
2023-09-03T12:52:52Z,42.805,6.029,13.3048,4.60140,2470.754,2023-9-03T14:55:13Z
2023-09-03T12:55:55Z,42.805,6.029,13.3046,4.60128,2470.693,2023-9-03T14:58:16Z
2023-09-03T12:58:58Z,42.805,6.029,13.3039,4.60123,2470.707,2023-9-03T15:01:19Z
2023-09-03T13:02:01Z,42.805,6.029,13.3039,4.60122,2470.693,2023-9-03T15:04:22Z
2023-09-03T13:05:04Z,42.805,6.029,13.3043,4.60119,2470.707,2023-9-03T15:07:25Z
2023-09-03T13:08:07Z,42.805,6.029,13.3045,4.60138,2470.693,2023-9-03T15:10:28Z
2023-09-03T13:11:10Z,42.805,6.029,13.3043,4.60140,2470.707,2023-9-03T15:13:31Z
2023-09-03T13:14:13Z,42.805,6.029,13.3048,4.60141,2470.67,2023-9-03T15:16:34Z
2023-09-03T13:17:17Z,42.805,6.029,13.3063,4.60141,2470.67,2023-9-03T15:19:37Z
2023-09-03T13:20:20Z,42.805,6.029,13.3050,4.60140,2470.707,2023-9-03T15:22:41Z
2023-09-03T13:23:23Z,42.805,6.029,13.3050,4.60144,2470.693,2023-9-03T15:25:44Z
2023-09-03T13:26:26Z,42.805,6.029,13.3060,4.60152,2470.684,2023-9-03T15:28:47Z
2023-09-03T13:29:29Z,42.805,6.029,13.3070,4.60147,2470.661,2023-9-03T15:31:50Z
2023-09-03T13:32:32Z,42.805,6.029,13.3052,4.60173,2470.684,2023-9-03T15:34:53Z
2023-09-03T13:35:35Z,42.805,6.029,13.3055,4.60146,2470.693,2023-9-03T15:37:56Z
2023-09-03T13:38:38Z,42.805,6.029,13.3042,4.60142,2470.67,2023-9-03T15:40:59Z
2023-09-03T13:41:41Z,42.805,6.029,13.3052,4.60129,2470.67,2023-9-03T15:44:02Z
2023-09-03T13:44:44Z,42.805,6.029,13.3041,4.60132,2470.67,2023-9-03T15:47:05Z
2023-09-03T13:47:47Z,42.805,6.029,13.3045,4.60132,2470.646,2023-9-03T15:50:08Z
2023-09-03T13:50:50Z,42.805,6.029,13.3043,4.60130,2470.684,2023-9-03T15:53:11Z
2023-09-03T13:53:54Z,42.805,6.029,13.3047,4.60123,2470.67,2023-9-03T15:56:14Z
2023-09-03T13:56:57Z,42.805,6.029,13.3038,4.60127,2470.67,2023-9-03T15:59:18Z
2023-09-03T14:00:00Z,42.805,6.029,13.3041,4.60150,2470.684,2023-9-03T16:02:21Z
2023-09-03T14:03:03Z,42.805,6.029,13.3051,4.60136,2470.661,2023-9-03T16:05:24Z
2023-09-03T14:06:06Z,42.805,6.029,13.3069,4.60134,2470.684,2023-9-03T16:08:27Z
2023-09-03T14:09:09Z,42.805,6.029,13.3052,4.60146,2470.646,2023-9-03T16:11:30Z
2023-09-03T14:12:12Z,42.805,6.029,13.3048,4.60148,2470.661,2023-9-03T16:14:33Z
2023-09-03T14:15:15Z,42.805,6.029,13.3041,4.60125,2470.661,2023-9-03T16:17:36Z
2023-09-03T14:18:18Z,42.805,6.029,13.3036,4.60114,2470.646,2023-9-03T16:20:39Z
2023-09-03T14:21:21Z,42.805,6.029,13.3044,4.60122,2470.646,2023-9-03T16:23:42Z
2023-09-03T14:24:24Z,42.805,6.029,13.3043,4.60133,2470.646,2023-9-03T16:26:45Z
2023-09-03T14:27:27Z,42.805,6.029,13.3038,4.60124,2470.67,2023-9-03T16:29:48Z
2023-09-03T14:30:31Z,42.805,6.029,13.3046,4.60122,2470.661,2023-9-03T16:32:52Z
2023-09-03T14:33:34Z,42.805,6.029,13.3050,4.60130,2470.67,2023-9-03T16:35:55Z
2023-09-03T14:36:37Z,42.805,6.029,13.3042,4.60144,2470.661,2023-9-03T16:38:58Z
2023-09-03T14:39:40Z,42.805,6.029,13.3061,4.60163,2470.646,2023-9-03T16:42:01Z
2023-09-03T14:42:43Z,42.805,6.029,13.3046,4.60144,2470.67,2023-9-03T16:45:04Z
2023-09-03T14:45:46Z,42.805,6.029,13.3044,4.60145,2470.661,2023-9-03T16:48:07Z
2023-09-03T14:48:49Z,42.805,6.029,13.3070,4.60143,2470.661,2023-9-03T16:51:10Z
2023-09-03T14:51:53Z,42.805,6.029,13.3057,4.60127,2470.67,2023-9-03T16:54:13Z
2023-09-03T14:54:56Z,42.805,6.029,13.3048,4.60147,2470.661,2023-9-03T16:57:17Z
2023-09-03T14:57:59Z,42.805,6.029,13.3069,4.60135,2470.614,2023-9-03T17:00:20Z
2023-09-03T15:01:02Z,42.805,6.029,13.3043,4.60127,2470.661,2023-9-03T17:03:23Z
2023-09-03T15:04:05Z,42.805,6.029,13.3044,4.60144,2470.646,2023-9-03T17:06:26Z
2023-09-03T15:07:08Z,42.805,6.029,13.3055,4.60173,2470.646,2023-9-03T17:09:29Z
2023-09-03T15:10:11Z,42.805,6.029,13.3063,4.60150,2470.624,2023-9-03T17:12:32Z
2023-09-03T15:13:14Z,42.805,6.029,13.3041,4.60146,2470.646,2023-9-03T17:15:35Z